NOAA 16 DEB, 41067

Orbit data source: Space-Track

NOAA 16 DEB, 41067 is space debris in SSO originally from a launch on Thu, 21 Sep 2000 UTC launched from the Air Force Western Test Range (AFWTR). Debris objects in space refer to the collection of defunct objects orbiting the Earth. Examples of debris include non-operational satellites, rocket bodies, and fragments generated from explosions, collisions, or faulty payload assembly.

Loading next visibility...
NOAA 16 DEB details
Identifier
41067, 2000-055AA
Orbit
SSO
Last TLE update20 hours ago
Origin
Flag of USNOAA (US)
ManufacturerUnknown
MissionSpacecraft
Bus & MotorUnknown
MassUnknown
Launch date (UTC)
2000-09-21 (24 years ago)
Launch vehicleUnknown
Launch site
Air Force Western Test Range (AFWTR)
Object type
Payload
Rocket body
Debris
Shape & HBRUnknown
Radar Cross SectionSmall (<0.1 m²)

Expand to show TLE details & history

TLE from 20 hours ago
0 NOAA 16 DEB
1 41067U 00055AA  24360.58344116  .00002988  00000-0  15238-2 0  9993
2 41067  98.5825  43.4477 0004832  40.8745 319.2791 14.16425577468519
Epoch: 2024-12-25T14:00Z
Definitive object data (Epoch: 2024-12-25T14:00:09.316Z)
Latitude-0.00006°
Longitude98.83379°
Altitude837.738 km
Speed7.435 km/s
True Right ascension02h 53m 47s
True Declination0° 00' 00"
Sunlit
Object was in full shadow at TLE epoch
Visualization TLE readout
Latitude-11.21233°
Longitude101.35422°
Altitude840.237 km
Speed7.433 km/s
Apparent Right ascension00h 56m 52s
Apparent Declination-30° 42' 44"
Sunlit
Object is in full shadow
Visualization observer readout
Local Sidereal Time09:38:47
Azimuth267.059° W
Elevation-49.093°
Doppler factor1
Orbital elements
Apogee altitude838.109 km
Perigee altitude831.139 km
Semi-major axis7,212.761 km
Eccentricity0.0004832
Inclination98.5825°
RAAN43.4477°
Arg. of periapsis40.8745°
True anomaly319.24296°
Mean anomaly319.2791°
Eccentric anomaly319.26103°
Mean motion3.54316 °/min
BSTAR0.0015238
Orbital period101.6 mins
Loading maneuver chart data...
Loading historical data...
Loading historical data...
Loading historical data...
Loading historical data...
Loading historical data...
Loading historical data...
Loading historical data...

NOAA 16 DEB Visibility forecast

Observer location: undefined°, undefined

Span
Click to sort rows by Start time (UTC) header in descending order
Start Az.
Max El. time (UTC)
Max El. Az.
Max El.
End time (UTC)
End Az.
9 mins2024-12-26 16:01:37.745Z13.242° NNE2024-12-26 16:05:37.745Z199.788° SSW44.653°2024-12-26 16:10:37.745Z195.332° SSW
6 mins2024-12-27 01:46:37.745Z95.971° ESE2024-12-27 01:49:37.745Z56.241° ENE18.019°2024-12-27 01:52:37.745Z21.288° NNE
8 mins2024-12-27 03:25:37.745Z186.991° SSW2024-12-27 03:29:37.745Z281.393° WNW39.265°2024-12-27 03:33:37.745Z335.666° NNW
|